This demonstration page uses our WeatherBlox Daily Observations layout. Learn more.

Left ArrowRight Arrow

31.84235, -102.49876

Hourly Observations for May 4, 2021

Temp ( °F °C ) Dew Point ( °F °C ) Humidity (%) Winds ( mph kmh ) Pressure ( in mb ) Visibility ( mi km ) Precip ( " mm )
12:53 am 00:53 Clear 54 12.2 45 7.2 72 72 NNE 22 35 29.84 1011 10 16 0.00 0.00
1:53 am 01:53 Clear 54 12.2 45 7.2 72 72 N 15 24 29.86 1011 10 16 0.00 0.00
2:53 am 02:53 Clear 53 11.7 45 7.2 74 74 N 12 19 29.87 1012 10 16 0.00 0.00
3:53 am 03:53 Clear 53 11.7 46 7.8 77 77 N 12 19 29.90 1013 10 16 0.00 0.00
4:53 am 04:53 Partly Cloudy 53 11.7 47 8.3 80 80 N 9 15 29.94 1014 10 16 0.00 0.00
5:05 am 05:05 Mostly Cloudy 53 11.7 47 8.3 80 80 N 14 22 30.03 1017 10 16 0.00 0.00
5:53 am 05:53 Cloudy 53 11.7 46 7.8 77 77 NNE 16 26 29.95 1014 10 16 0.00 0.00
6:53 am 06:53 Cloudy 54 12.2 46 7.8 75 75 NNE 13 20 29.97 1015 10 16 0.00 0.00
7:53 am 07:53 Cloudy 53 11.7 45 7.2 74 74 NNE 13 20 30.01 1016 10 16 0.00 0.00
8:53 am 08:53 Cloudy 54 12.2 44 6.7 69 69 NNE 16 26 30.06 1018 10 16 0.00 0.00
9:53 am 09:53 Cloudy 55 12.8 44 6.7 67 67 N 12 19 30.08 1019 10 16 0.00 0.00
10:53 am 10:53 Cloudy 56 13.3 44 6.7 65 65 N 12 19 30.09 1019 10 16 0.00 0.00
11:53 am 11:53 Mostly Cloudy 61 16.1 44 6.7 54 54 NNE 15 24 30.09 1019 10 16 0.00 0.00
12:08 pm 12:08 Mostly Cloudy 61 16.1 44 6.7 54 54 NNE 14 22 30.09 1019 10 16 0.00 0.00
12:53 pm 12:53 Partly Cloudy 62 16.7 43 6.1 50 50 NNE 12 19 30.08 1019 10 16 0.00 0.00
1:53 pm 13:53 Sunny 66 18.9 44 6.7 45 45 N 10 17 30.05 1018 10 16 0.00 0.00
2:53 pm 14:53 Sunny 67 19.4 43 6.1 42 42 NNE 8 13 30.03 1017 10 16 0.00 0.00
3:53 pm 15:53 Sunny 68 20 42 5.6 39 39 NNE 13 20 30.01 1016 10 16 0.00 0.00
4:53 pm 16:53 Sunny 70 21.1 42 5.6 37 37 N 9 15 29.99 1016 10 16 0.00 0.00
5:53 pm 17:53 Sunny 70 21.1 42 5.6 37 37 VRB 3 6 29.98 1015 10 16 0.00 0.00
6:53 pm 18:53 Sunny 70 21.1 42 5.6 37 37 N 6 9 29.98 1015 10 16 0.00 0.00
7:53 pm 19:53 Sunny 68 20 42 5.6 39 39 E 7 11 30.00 1016 10 16 0.00 0.00
8:53 pm 20:53 Clear 64 17.8 45 7.2 50 50 E 6 9 30.02 1017 10 16 0.00 0.00
9:53 pm 21:53 Clear 61 16.1 47 8.3 60 60 E 7 11 30.04 1017 10 16 0.00 0.00
10:53 pm 22:53 Clear 60 15.6 47 8.3 62 62 ESE 5 7 30.06 1018 10 16 0.00 0.00
11:53 pm 23:53 Clear 59 15 46 7.8 62 62 ESE 6 9 30.05 1018 10 16 0.00 0.00

Powered by AerisWeather